Date_Time,Julian_Date,Latitude,Longitude,Instrument_Depth,U,V,Speed,Direction
(yyyy-mm-dd hh:mn:ss UTC),(JD),(+ deg. North),(+ deg. East),(m),(cm/s),(cm/s),(cm/s),(deg True)
1981-09-04 13:30:00 UTC,2444852.062500,29.7697,-93.3439,0037,1.19,16.96,17.0000,4.0000
1981-09-04 14:00:00 UTC,2444852.083333,29.7697,-93.3439,0037,0.70,9.98,10.0000,4.0000
1981-09-04 14:30:00 UTC,2444852.104167,29.7697,-93.3439,0037,1.79,-4.67,5.0000,159.0000
1981-09-04 15:00:00 UTC,2444852.125000,29.7697,-93.3439,0037,3.48,-24.76,25.0000,172.0000
1981-09-04 15:30:00 UTC,2444852.145833,29.7697,-93.3439,0037,4.49,-42.76,43.0000,174.0000
1981-09-04 16:00:00 UTC,2444852.166667,29.7697,-93.3439,0037,5.85,-55.69,56.0000,174.0000
1981-09-04 16:30:00 UTC,2444852.187500,29.7697,-93.3439,0037,5.23,-59.77,60.0000,175.0000
1981-09-04 17:00:00 UTC,2444852.208333,29.7697,-93.3439,0037,3.91,-55.86,56.0000,176.0000
1981-09-04 17:30:00 UTC,2444852.229167,29.7697,-93.3439,0037,2.77,-52.93,53.0000,177.0000
1981-09-04 18:00:00 UTC,2444852.250000,29.7697,-93.3439,0037,2.72,-51.93,52.0000,177.0000
1981-09-04 18:30:00 UTC,2444852.270833,29.7697,-93.3439,0037,2.62,-49.93,50.0000,177.0000
1981-09-04 19:00:00 UTC,2444852.291667,29.7697,-93.3439,0037,3.42,-48.88,49.0000,176.0000
1981-09-04 19:30:00 UTC,2444852.312500,29.7697,-93.3439,0037,3.63,-51.87,52.0000,176.0000
1981-09-04 20:00:00 UTC,2444852.333333,29.7697,-93.3439,0037,4.79,-54.79,55.0000,175.0000
1981-09-04 20:30:00 UTC,2444852.354167,29.7697,-93.3439,0037,6.06,-57.68,58.0000,174.0000
1981-09-04 21:00:00 UTC,2444852.375000,29.7697,-93.3439,0037,7.31,-59.55,60.0000,173.0000
1981-09-04 21:30:00 UTC,2444852.395833,29.7697,-93.3439,0037,8.35,-59.42,60.0000,172.0000
1981-09-04 22:00:00 UTC,2444852.416667,29.7697,-93.3439,0037,6.70,-54.59,55.0000,173.0000
1981-09-04 22:30:00 UTC,2444852.437500,29.7697,-93.3439,0037,7.67,-48.40,49.0000,171.0000
1981-09-04 23:00:00 UTC,2444852.458333,29.7697,-93.3439,0037,8.73,-41.08,42.0000,168.0000
1981-09-04 23:30:00 UTC,2444852.479167,29.7697,-93.3439,0037,8.28,-30.91,32.0000,165.0000
1981-09-05 00:00:00 UTC,2444852.500000,29.7697,-93.3439,0037,5.85,-19.13,20.0000,163.0000
1981-09-05 00:30:00 UTC,2444852.520833,29.7697,-93.3439,0037,4.01,-4.46,6.0000,138.0000
1981-09-05 01:00:00 UTC,2444852.541667,29.7697,-93.3439,0037,2.19,13.83,14.0000,9.0000
1981-09-05 01:30:00 UTC,2444852.562500,29.7697,-93.3439,0037,-0.61,34.99,35.0000,359.0000
1981-09-05 02:00:00 UTC,2444852.583333,29.7697,-93.3439,0037,-0.94,53.99,54.0000,359.0000
1981-09-05 02:30:00 UTC,2444852.604167,29.7697,-93.3439,0037,-1.15,65.99,66.0000,359.0000
1981-09-05 03:00:00 UTC,2444852.625000,29.7697,-93.3439,0037,-1.20,68.99,69.0000,359.0000
1981-09-05 03:30:00 UTC,2444852.645833,29.7697,-93.3439,0037,-2.20,62.96,63.0000,358.0000
1981-09-05 04:00:00 UTC,2444852.666667,29.7697,-93.3439,0037,-2.46,46.94,47.0000,357.0000
1981-09-05 04:30:00 UTC,2444852.687500,29.7697,-93.3439,0037,-2.02,28.93,29.0000,356.0000
1981-09-05 05:00:00 UTC,2444852.708333,29.7697,-93.3439,0037,0.00,0.00,0.0000,0.0000
1981-09-05 05:30:00 UTC,2444852.729167,29.7697,-93.3439,0037,0.91,12.97,13.0000,4.0000
1981-09-05 06:00:00 UTC,2444852.750000,29.7697,-93.3439,0037,-0.94,8.95,9.0000,354.0000
1981-09-05 06:30:00 UTC,2444852.770833,29.7697,-93.3439,0037,-1.81,6.76,7.0000,345.0000
1981-09-05 07:00:00 UTC,2444852.791667,29.7697,-93.3439,0037,0.88,2.87,3.0000,17.0000
1981-09-05 07:30:00 UTC,2444852.812500,29.7697,-93.3439,0037,1.14,-5.89,6.0000,169.0000
1981-09-05 08:00:00 UTC,2444852.833333,29.7697,-93.3439,0037,-0.33,-19.00,19.0000,181.0000
1981-09-05 08:30:00 UTC,2444852.854167,29.7697,-93.3439,0037,0.44,-25.00,25.0000,179.0000
1981-09-05 09:00:00 UTC,2444852.875000,29.7697,-93.3439,0037,1.81,-25.94,26.0000,176.0000
1981-09-05 09:30:00 UTC,2444852.895833,29.7697,-93.3439,0037,2.27,-25.90,26.0000,175.0000
1981-09-05 10:00:00 UTC,2444852.916667,29.7697,-93.3439,0037,2.30,-21.88,22.0000,174.0000
1981-09-05 10:30:00 UTC,2444852.937500,29.7697,-93.3439,0037,2.64,-18.82,19.0000,172.0000
1981-09-05 11:00:00 UTC,2444852.958333,29.7697,-93.3439,0037,2.37,-16.83,17.0000,172.0000
1981-09-05 11:30:00 UTC,2444852.979167,29.7697,-93.3439,0037,1.39,-15.94,16.0000,175.0000
1981-09-05 12:00:00 UTC,2444853.000000,29.7697,-93.3439,0037,1.12,-15.96,16.0000,176.0000
1981-09-05 12:30:00 UTC,2444853.020833,29.7697,-93.3439,0037,1.39,-15.94,16.0000,175.0000
1981-09-05 13:00:00 UTC,2444853.041667,29.7697,-93.3439,0037,1.46,-13.92,14.0000,174.0000
1981-09-05 13:30:00 UTC,2444853.062500,29.7697,-93.3439,0037,1.46,-11.91,12.0000,173.0000
1981-09-05 14:00:00 UTC,2444853.083333,29.7697,-93.3439,0037,1.36,-12.93,13.0000,174.0000
1981-09-05 14:30:00 UTC,2444853.104167,29.7697,-93.3439,0037,1.88,-17.90,18.0000,174.0000
1981-09-05 15:00:00 UTC,2444853.125000,29.7697,-93.3439,0037,3.29,-26.80,27.0000,173.0000
1981-09-05 15:30:00 UTC,2444853.145833,29.7697,-93.3439,0037,3.66,-34.81,35.0000,174.0000
1981-09-05 16:00:00 UTC,2444853.166667,29.7697,-93.3439,0037,2.86,-40.90,41.0000,176.0000
1981-09-05 16:30:00 UTC,2444853.187500,29.7697,-93.3439,0037,2.46,-46.94,47.0000,177.0000
1981-09-05 17:00:00 UTC,2444853.208333,29.7697,-93.3439,0037,1.92,-54.97,55.0000,178.0000
1981-09-05 17:30:00 UTC,2444853.229167,29.7697,-93.3439,0037,3.24,-61.92,62.0000,177.0000
1981-09-05 18:00:00 UTC,2444853.250000,29.7697,-93.3439,0037,3.35,-63.91,64.0000,177.0000
1981-09-05 18:30:00 UTC,2444853.270833,29.7697,-93.3439,0037,4.32,-61.85,62.0000,176.0000
1981-09-05 19:00:00 UTC,2444853.291667,29.7697,-93.3439,0037,4.19,-59.85,60.0000,176.0000
1981-09-05 19:30:00 UTC,2444853.312500,29.7697,-93.3439,0037,4.26,-60.85,61.0000,176.0000
1981-09-05 20:00:00 UTC,2444853.333333,29.7697,-93.3439,0037,6.90,-65.64,66.0000,174.0000
1981-09-05 20:30:00 UTC,2444853.354167,29.7697,-93.3439,0037,9.74,-69.32,70.0000,172.0000
1981-09-05 21:00:00 UTC,2444853.375000,29.7697,-93.3439,0037,12.50,-70.91,72.0000,170.0000
1981-09-05 21:30:00 UTC,2444853.395833,29.7697,-93.3439,0037,12.98,-66.75,68.0000,169.0000
1981-09-05 22:00:00 UTC,2444853.416667,29.7697,-93.3439,0037,10.77,-61.06,62.0000,170.0000
1981-09-05 22:30:00 UTC,2444853.437500,29.7697,-93.3439,0037,9.92,-51.04,52.0000,169.0000
1981-09-05 23:00:00 UTC,2444853.458333,29.7697,-93.3439,0037,8.32,-39.13,40.0000,168.0000
1981-09-05 23:30:00 UTC,2444853.479167,29.7697,-93.3439,0037,6.53,-26.20,27.0000,166.0000
1981-09-06 00:00:00 UTC,2444853.500000,29.7697,-93.3439,0037,3.87,-15.52,16.0000,166.0000
1981-09-06 00:30:00 UTC,2444853.520833,29.7697,-93.3439,0037,0.31,-1.98,2.0000,171.0000
1981-09-06 01:00:00 UTC,2444853.541667,29.7697,-93.3439,0037,-1.57,17.93,18.0000,355.0000
1981-09-06 01:30:00 UTC,2444853.562500,29.7697,-93.3439,0037,-0.70,39.99,40.0000,359.0000
1981-09-06 02:00:00 UTC,2444853.583333,29.7697,-93.3439,0037,-1.05,59.99,60.0000,359.0000
1981-09-06 02:30:00 UTC,2444853.604167,29.7697,-93.3439,0037,-2.55,72.96,73.0000,358.0000
1981-09-06 03:00:00 UTC,2444853.625000,29.7697,-93.3439,0037,-4.03,76.89,77.0000,357.0000
1981-09-06 03:30:00 UTC,2444853.645833,29.7697,-93.3439,0037,-3.82,72.90,73.0000,357.0000
1981-09-06 04:00:00 UTC,2444853.666667,29.7697,-93.3439,0037,-4.81,68.83,69.0000,356.0000
1981-09-06 04:30:00 UTC,2444853.687500,29.7697,-93.3439,0037,-4.74,67.83,68.0000,356.0000
1981-09-06 05:00:00 UTC,2444853.708333,29.7697,-93.3439,0037,-4.74,67.83,68.0000,356.0000
1981-09-06 05:30:00 UTC,2444853.729167,29.7697,-93.3439,0037,-4.74,67.83,68.0000,356.0000
1981-09-06 06:00:00 UTC,2444853.750000,29.7697,-93.3439,0037,-5.40,61.76,62.0000,355.0000
1981-09-06 06:30:00 UTC,2444853.770833,29.7697,-93.3439,0037,-5.44,51.72,52.0000,354.0000
1981-09-06 07:00:00 UTC,2444853.791667,29.7697,-93.3439,0037,-3.66,41.84,42.0000,355.0000
1981-09-06 07:30:00 UTC,2444853.812500,29.7697,-93.3439,0037,-2.51,35.91,36.0000,356.0000
1981-09-06 08:00:00 UTC,2444853.833333,29.7697,-93.3439,0037,-2.23,31.92,32.0000,356.0000
1981-09-06 08:30:00 UTC,2444853.854167,29.7697,-93.3439,0037,0.44,25.00,25.0000,1.0000
1981-09-06 09:00:00 UTC,2444853.875000,29.7697,-93.3439,0037,2.32,18.86,19.0000,7.0000
1981-09-06 09:30:00 UTC,2444853.895833,29.7697,-93.3439,0037,1.48,16.94,17.0000,5.0000
1981-09-06 10:00:00 UTC,2444853.916667,29.7697,-93.3439,0037,1.12,15.96,16.0000,4.0000
1981-09-06 10:30:00 UTC,2444853.937500,29.7697,-93.3439,0037,2.09,14.85,15.0000,8.0000
1981-09-06 11:00:00 UTC,2444853.958333,29.7697,-93.3439,0037,2.60,14.77,15.0000,10.0000
1981-09-06 11:30:00 UTC,2444853.979167,29.7697,-93.3439,0037,2.66,16.79,17.0000,9.0000
1981-09-06 12:00:00 UTC,2444854.000000,29.7697,-93.3439,0037,1.78,16.91,17.0000,6.0000
1981-09-06 12:30:00 UTC,2444854.020833,29.7697,-93.3439,0037,0.59,16.99,17.0000,2.0000
1981-09-06 13:00:00 UTC,2444854.041667,29.7697,-93.3439,0037,0.00,0.00,0.0000,0.0000
1981-09-06 13:30:00 UTC,2444854.062500,29.7697,-93.3439,0037,-0.28,16.00,16.0000,359.0000
1981-09-06 14:00:00 UTC,2444854.083333,29.7697,-93.3439,0037,-0.21,12.00,12.0000,359.0000
1981-09-06 14:30:00 UTC,2444854.104167,29.7697,-93.3439,0037,0.37,6.99,7.0000,3.0000
1981-09-06 15:00:00 UTC,2444854.125000,29.7697,-93.3439,0037,1.17,2.76,3.0000,23.0000
1981-09-06 15:30:00 UTC,2444854.145833,29.7697,-93.3439,0037,1.34,-6.87,7.0000,169.0000
1981-09-06 16:00:00 UTC,2444854.166667,29.7697,-93.3439,0037,2.00,-22.91,23.0000,175.0000
1981-09-06 16:30:00 UTC,2444854.187500,29.7697,-93.3439,0037,3.14,-35.86,36.0000,175.0000
1981-09-06 17:00:00 UTC,2444854.208333,29.7697,-93.3439,0037,2.36,-44.94,45.0000,177.0000
1981-09-06 17:30:00 UTC,2444854.229167,29.7697,-93.3439,0037,1.81,-51.97,52.0000,178.0000
1981-09-06 18:00:00 UTC,2444854.250000,29.7697,-93.3439,0037,1.99,-56.97,57.0000,178.0000
1981-09-06 18:30:00 UTC,2444854.270833,29.7697,-93.3439,0037,2.98,-56.92,57.0000,177.0000
1981-09-06 19:00:00 UTC,2444854.291667,29.7697,-93.3439,0037,2.88,-54.92,55.0000,177.0000
1981-09-06 19:30:00 UTC,2444854.312500,29.7697,-93.3439,0037,2.93,-55.92,56.0000,177.0000
1981-09-06 20:00:00 UTC,2444854.333333,29.7697,-93.3439,0037,4.05,-57.86,58.0000,176.0000
1981-09-06 20:30:00 UTC,2444854.354167,29.7697,-93.3439,0037,5.32,-60.77,61.0000,175.0000
1981-09-06 21:00:00 UTC,2444854.375000,29.7697,-93.3439,0037,4.26,-60.85,61.0000,176.0000
1981-09-06 21:30:00 UTC,2444854.395833,29.7697,-93.3439,0037,3.04,-57.92,58.0000,177.0000
1981-09-06 22:00:00 UTC,2444854.416667,29.7697,-93.3439,0037,4.05,-57.86,58.0000,176.0000
1981-09-06 22:30:00 UTC,2444854.437500,29.7697,-93.3439,0037,6.38,-60.67,61.0000,174.0000
1981-09-06 23:00:00 UTC,2444854.458333,29.7697,-93.3439,0037,8.77,-62.39,63.0000,172.0000
1981-09-06 23:30:00 UTC,2444854.479167,29.7697,-93.3439,0037,9.70,-61.24,62.0000,171.0000
1981-09-07 00:00:00 UTC,2444854.500000,29.7697,-93.3439,0037,10.88,-55.95,57.0000,169.0000
1981-09-07 00:30:00 UTC,2444854.520833,29.7697,-93.3439,0037,10.19,-47.93,49.0000,168.0000
1981-09-07 01:00:00 UTC,2444854.541667,29.7697,-93.3439,0037,8.10,-35.08,36.0000,167.0000
1981-09-07 01:30:00 UTC,2444854.562500,29.7697,-93.3439,0037,3.82,-16.56,17.0000,167.0000
1981-09-07 02:00:00 UTC,2444854.583333,29.7697,-93.3439,0037,0.56,3.96,4.0000,8.0000
1981-09-07 02:30:00 UTC,2444854.604167,29.7697,-93.3439,0037,-0.40,23.00,23.0000,359.0000
1981-09-07 03:00:00 UTC,2444854.625000,29.7697,-93.3439,0037,-0.66,37.99,38.0000,359.0000
1981-09-07 03:30:00 UTC,2444854.645833,29.7697,-93.3439,0037,-0.91,51.99,52.0000,359.0000
1981-09-07 04:00:00 UTC,2444854.666667,29.7697,-93.3439,0037,-1.08,61.99,62.0000,359.0000
1981-09-07 04:30:00 UTC,2444854.687500,29.7697,-93.3439,0037,-1.17,66.99,67.0000,359.0000
1981-09-07 05:00:00 UTC,2444854.708333,29.7697,-93.3439,0037,-2.30,65.96,66.0000,358.0000
1981-09-07 05:30:00 UTC,2444854.729167,29.7697,-93.3439,0037,-3.40,64.91,65.0000,357.0000
1981-09-07 06:00:00 UTC,2444854.750000,29.7697,-93.3439,0037,-3.25,61.92,62.0000,357.0000
1981-09-07 06:30:00 UTC,2444854.770833,29.7697,-93.3439,0037,-3.98,56.86,57.0000,356.0000
1981-09-07 07:00:00 UTC,2444854.791667,29.7697,-93.3439,0037,-4.27,48.81,49.0000,355.0000
1981-09-07 07:30:00 UTC,2444854.812500,29.7697,-93.3439,0037,-5.12,41.69,42.0000,353.0000
1981-09-07 08:00:00 UTC,2444854.833333,29.7697,-93.3439,0037,-5.01,35.65,36.0000,352.0000
1981-09-07 08:30:00 UTC,2444854.854167,29.7697,-93.3439,0037,-4.22,26.67,27.0000,351.0000
1981-09-07 09:00:00 UTC,2444854.875000,29.7697,-93.3439,0037,-3.43,17.67,18.0000,349.0000
1981-09-07 09:30:00 UTC,2444854.895833,29.7697,-93.3439,0037,-2.48,12.76,13.0000,349.0000
1981-09-07 10:00:00 UTC,2444854.916667,29.7697,-93.3439,0037,-1.34,6.87,7.0000,349.0000
1981-09-07 10:30:00 UTC,2444854.937500,29.7697,-93.3439,0037,-1.88,0.68,2.0000,290.0000
1981-09-07 11:00:00 UTC,2444854.958333,29.7697,-93.3439,0037,-4.39,-4.09,6.0000,227.0000
1981-09-07 11:30:00 UTC,2444854.979167,29.7697,-93.3439,0037,-4.54,-8.91,10.0000,207.0000
1981-09-07 12:00:00 UTC,2444855.000000,29.7697,-93.3439,0037,-1.81,-12.87,13.0000,188.0000
1981-09-07 12:30:00 UTC,2444855.020833,29.7697,-93.3439,0037,1.46,-13.92,14.0000,174.0000
1981-09-07 13:00:00 UTC,2444855.041667,29.7697,-93.3439,0037,2.51,-17.82,18.0000,172.0000
1981-09-07 13:30:00 UTC,2444855.062500,29.7697,-93.3439,0037,2.40,-22.87,23.0000,174.0000
1981-09-07 14:00:00 UTC,2444855.083333,29.7697,-93.3439,0037,2.80,-22.83,23.0000,173.0000
1981-09-07 14:30:00 UTC,2444855.104167,29.7697,-93.3439,0037,2.44,-19.85,20.0000,173.0000
1981-09-07 15:00:00 UTC,2444855.125000,29.7697,-93.3439,0037,1.33,-18.95,19.0000,176.0000
1981-09-07 15:30:00 UTC,2444855.145833,29.7697,-93.3439,0037,1.46,-20.95,21.0000,176.0000
1981-09-07 16:00:00 UTC,2444855.166667,29.7697,-93.3439,0037,1.67,-23.94,24.0000,176.0000
1981-09-07 16:30:00 UTC,2444855.187500,29.7697,-93.3439,0037,1.47,-27.96,28.0000,177.0000
1981-09-07 17:00:00 UTC,2444855.208333,29.7697,-93.3439,0037,1.78,-33.95,34.0000,177.0000
1981-09-07 17:30:00 UTC,2444855.229167,29.7697,-93.3439,0037,2.15,-40.94,41.0000,177.0000
1981-09-07 18:00:00 UTC,2444855.250000,29.7697,-93.3439,0037,2.51,-47.93,48.0000,177.0000
1981-09-07 18:30:00 UTC,2444855.270833,29.7697,-93.3439,0037,2.88,-54.92,55.0000,177.0000
1981-09-07 19:00:00 UTC,2444855.291667,29.7697,-93.3439,0037,3.14,-59.92,60.0000,177.0000
1981-09-07 19:30:00 UTC,2444855.312500,29.7697,-93.3439,0037,2.20,-62.96,63.0000,178.0000
1981-09-07 20:00:00 UTC,2444855.333333,29.7697,-93.3439,0037,2.20,-62.96,63.0000,178.0000
1981-09-07 20:30:00 UTC,2444855.354167,29.7697,-93.3439,0037,2.27,-64.96,65.0000,178.0000
1981-09-07 21:00:00 UTC,2444855.375000,29.7697,-93.3439,0037,4.88,-69.83,70.0000,176.0000
1981-09-07 21:30:00 UTC,2444855.395833,29.7697,-93.3439,0037,7.74,-73.59,74.0000,174.0000
1981-09-07 22:00:00 UTC,2444855.416667,29.7697,-93.3439,0037,9.02,-73.45,74.0000,173.0000
1981-09-07 22:30:00 UTC,2444855.437500,29.7697,-93.3439,0037,8.90,-72.46,73.0000,173.0000
1981-09-07 23:00:00 UTC,2444855.458333,29.7697,-93.3439,0037,10.16,-72.29,73.0000,172.0000
1981-09-07 23:30:00 UTC,2444855.479167,29.7697,-93.3439,0037,11.26,-71.11,72.0000,171.0000
1981-09-08 00:00:00 UTC,2444855.500000,29.7697,-93.3439,0037,10.48,-66.18,67.0000,171.0000
1981-09-08 00:30:00 UTC,2444855.520833,29.7697,-93.3439,0037,10.42,-59.09,60.0000,170.0000
1981-09-08 01:00:00 UTC,2444855.541667,29.7697,-93.3439,0037,8.68,-49.24,50.0000,170.0000
1981-09-08 01:30:00 UTC,2444855.562500,29.7697,-93.3439,0037,6.08,-34.47,35.0000,170.0000
1981-09-08 02:00:00 UTC,2444855.583333,29.7697,-93.3439,0037,4.13,-14.42,15.0000,164.0000
1981-09-08 02:30:00 UTC,2444855.604167,29.7697,-93.3439,0037,1.72,8.83,9.0000,11.0000
1981-09-08 03:00:00 UTC,2444855.625000,29.7697,-93.3439,0037,-0.56,32.00,32.0000,359.0000
1981-09-08 03:30:00 UTC,2444855.645833,29.7697,-93.3439,0037,-0.84,47.99,48.0000,359.0000
1981-09-08 04:00:00 UTC,2444855.666667,29.7697,-93.3439,0037,-1.03,58.99,59.0000,359.0000
1981-09-08 04:30:00 UTC,2444855.687500,29.7697,-93.3439,0037,-2.44,69.96,70.0000,358.0000
1981-09-08 05:00:00 UTC,2444855.708333,29.7697,-93.3439,0037,-4.24,80.89,81.0000,357.0000
1981-09-08 05:30:00 UTC,2444855.729167,29.7697,-93.3439,0037,-6.00,85.79,86.0000,356.0000
1981-09-08 06:00:00 UTC,2444855.750000,29.7697,-93.3439,0037,-6.00,85.79,86.0000,356.0000
1981-09-08 06:30:00 UTC,2444855.770833,29.7697,-93.3439,0037,-5.93,84.79,85.0000,356.0000
1981-09-08 07:00:00 UTC,2444855.791667,29.7697,-93.3439,0037,-5.65,80.80,81.0000,356.0000
1981-09-08 07:30:00 UTC,2444855.812500,29.7697,-93.3439,0037,-5.02,71.82,72.0000,356.0000
1981-09-08 08:00:00 UTC,2444855.833333,29.7697,-93.3439,0037,-5.14,58.78,59.0000,355.0000
1981-09-08 08:30:00 UTC,2444855.854167,29.7697,-93.3439,0037,-6.26,44.56,45.0000,352.0000
1981-09-08 09:00:00 UTC,2444855.875000,29.7697,-93.3439,0037,-4.73,33.67,34.0000,352.0000
1981-09-08 09:30:00 UTC,2444855.895833,29.7697,-93.3439,0037,-2.51,23.87,24.0000,354.0000
1981-09-08 10:00:00 UTC,2444855.916667,29.7697,-93.3439,0037,-2.08,11.82,12.0000,350.0000
1981-09-08 10:30:00 UTC,2444855.937500,29.7697,-93.3439,0037,-6.06,-3.50,7.0000,240.0000
1981-09-08 11:00:00 UTC,2444855.958333,29.7697,-93.3439,0037,-10.79,-10.42,15.0000,226.0000
1981-09-08 11:30:00 UTC,2444855.979167,29.7697,-93.3439,0037,-9.84,-11.32,15.0000,221.0000
1981-09-08 12:00:00 UTC,2444856.000000,29.7697,-93.3439,0037,-1.83,-14.89,15.0000,187.0000
1981-09-08 12:30:00 UTC,2444856.020833,29.7697,-93.3439,0037,3.13,-17.73,18.0000,170.0000
1981-09-08 13:00:00 UTC,2444856.041667,29.7697,-93.3439,0037,2.80,-22.83,23.0000,173.0000
1981-09-08 13:30:00 UTC,2444856.062500,29.7697,-93.3439,0037,1.95,-27.93,28.0000,176.0000
1981-09-08 14:00:00 UTC,2444856.083333,29.7697,-93.3439,0037,2.02,-28.93,29.0000,176.0000
1981-09-08 14:30:00 UTC,2444856.104167,29.7697,-93.3439,0037,2.53,-28.89,29.0000,175.0000
1981-09-08 15:00:00 UTC,2444856.125000,29.7697,-93.3439,0037,2.44,-27.89,28.0000,175.0000
1981-09-08 15:30:00 UTC,2444856.145833,29.7697,-93.3439,0037,2.44,-27.89,28.0000,175.0000
1981-09-08 16:00:00 UTC,2444856.166667,29.7697,-93.3439,0037,1.95,-27.93,28.0000,176.0000
1981-09-08 16:30:00 UTC,2444856.187500,29.7697,-93.3439,0037,1.57,-29.96,30.0000,177.0000
1981-09-08 17:00:00 UTC,2444856.208333,29.7697,-93.3439,0037,1.67,-31.96,32.0000,177.0000
1981-09-08 17:30:00 UTC,2444856.229167,29.7697,-93.3439,0037,1.88,-35.95,36.0000,177.0000
1981-09-08 18:00:00 UTC,2444856.250000,29.7697,-93.3439,0037,2.09,-39.95,40.0000,177.0000
1981-09-08 18:30:00 UTC,2444856.270833,29.7697,-93.3439,0037,2.36,-44.94,45.0000,177.0000
1981-09-08 19:00:00 UTC,2444856.291667,29.7697,-93.3439,0037,2.62,-49.93,50.0000,177.0000
1981-09-08 19:30:00 UTC,2444856.312500,29.7697,-93.3439,0037,2.93,-55.92,56.0000,177.0000
1981-09-08 20:00:00 UTC,2444856.333333,29.7697,-93.3439,0037,5.49,-62.76,63.0000,175.0000
1981-09-08 20:30:00 UTC,2444856.354167,29.7697,-93.3439,0037,8.29,-67.49,68.0000,173.0000
1981-09-08 21:00:00 UTC,2444856.375000,29.7697,-93.3439,0037,10.16,-72.29,73.0000,172.0000
1981-09-08 21:30:00 UTC,2444856.395833,29.7697,-93.3439,0037,12.36,-78.03,79.0000,171.0000
1981-09-08 22:00:00 UTC,2444856.416667,29.7697,-93.3439,0037,12.67,-80.00,81.0000,171.0000
1981-09-08 22:30:00 UTC,2444856.437500,29.7697,-93.3439,0037,10.86,-77.24,78.0000,172.0000
1981-09-08 23:00:00 UTC,2444856.458333,29.7697,-93.3439,0037,11.73,-74.08,75.0000,171.0000
1981-09-08 23:30:00 UTC,2444856.479167,29.7697,-93.3439,0037,13.20,-74.85,76.0000,170.0000
1981-09-09 00:00:00 UTC,2444856.500000,29.7697,-93.3439,0037,10.86,-77.24,78.0000,172.0000
1981-09-09 00:30:00 UTC,2444856.520833,29.7697,-93.3439,0037,9.38,-76.43,77.0000,173.0000
1981-09-09 01:00:00 UTC,2444856.541667,29.7697,-93.3439,0037,10.02,-71.30,72.0000,172.0000
1981-09-09 01:30:00 UTC,2444856.562500,29.7697,-93.3439,0037,10.32,-65.19,66.0000,171.0000
1981-09-09 02:00:00 UTC,2444856.583333,29.7697,-93.3439,0037,10.59,-60.07,61.0000,170.0000
1981-09-09 02:30:00 UTC,2444856.604167,29.7697,-93.3439,0037,8.51,-48.26,49.0000,170.0000
1981-09-09 03:00:00 UTC,2444856.625000,29.7697,-93.3439,0037,8.54,-31.88,33.0000,165.0000
1981-09-09 03:30:00 UTC,2444856.645833,29.7697,-93.3439,0037,8.50,-14.72,17.0000,150.0000
1981-09-09 04:00:00 UTC,2444856.666667,29.7697,-93.3439,0037,3.78,1.30,4.0000,71.0000
1981-09-09 04:30:00 UTC,2444856.687500,29.7697,-93.3439,0037,-1.05,14.96,15.0000,356.0000
1981-09-09 05:00:00 UTC,2444856.708333,29.7697,-93.3439,0037,-2.09,29.93,30.0000,356.0000
1981-09-09 05:30:00 UTC,2444856.729167,29.7697,-93.3439,0037,-1.50,42.97,43.0000,358.0000
1981-09-09 06:00:00 UTC,2444856.750000,29.7697,-93.3439,0037,-1.75,49.97,50.0000,358.0000
1981-09-09 06:30:00 UTC,2444856.770833,29.7697,-93.3439,0037,-2.77,52.93,53.0000,357.0000
1981-09-09 07:00:00 UTC,2444856.791667,29.7697,-93.3439,0037,-3.98,56.86,57.0000,356.0000
1981-09-09 07:30:00 UTC,2444856.812500,29.7697,-93.3439,0037,-4.60,65.84,66.0000,356.0000
1981-09-09 08:00:00 UTC,2444856.833333,29.7697,-93.3439,0037,-2.44,69.96,70.0000,358.0000
1981-09-09 08:30:00 UTC,2444856.854167,29.7697,-93.3439,0037,-1.17,66.99,67.0000,359.0000
1981-09-09 09:00:00 UTC,2444856.875000,29.7697,-93.3439,0037,-2.20,62.96,63.0000,358.0000
1981-09-09 09:30:00 UTC,2444856.895833,29.7697,-93.3439,0037,-2.83,53.93,54.0000,357.0000
1981-09-09 10:00:00 UTC,2444856.916667,29.7697,-93.3439,0037,-3.75,42.84,43.0000,355.0000
1981-09-09 10:30:00 UTC,2444856.937500,29.7697,-93.3439,0037,-3.55,33.81,34.0000,354.0000
1981-09-09 11:00:00 UTC,2444856.958333,29.7697,-93.3439,0037,-3.06,21.79,22.0000,352.0000
1981-09-09 11:30:00 UTC,2444856.979167,29.7697,-93.3439,0037,-3.15,13.64,14.0000,347.0000
1981-09-09 12:00:00 UTC,2444857.000000,29.7697,-93.3439,0037,-2.78,15.76,16.0000,350.0000
1981-09-09 12:30:00 UTC,2444857.020833,29.7697,-93.3439,0037,-1.95,13.86,14.0000,352.0000
1981-09-09 13:00:00 UTC,2444857.041667,29.7697,-93.3439,0037,-0.61,6.97,7.0000,355.0000
1981-09-09 13:30:00 UTC,2444857.062500,29.7697,-93.3439,0037,1.08,2.80,3.0000,21.0000
1981-09-09 14:00:00 UTC,2444857.083333,29.7697,-93.3439,0037,-0.97,-0.24,1.0000,256.0000
1981-09-09 14:30:00 UTC,2444857.104167,29.7697,-93.3439,0037,-6.87,-1.34,7.0000,259.0000
1981-09-09 15:00:00 UTC,2444857.125000,29.7697,-93.3439,0037,-6.54,2.51,7.0000,291.0000
1981-09-09 15:30:00 UTC,2444857.145833,29.7697,-93.3439,0037,-2.54,5.44,6.0000,335.0000
1981-09-09 16:00:00 UTC,2444857.166667,29.7697,-93.3439,0037,-0.76,3.93,4.0000,349.0000
1981-09-09 16:30:00 UTC,2444857.187500,29.7697,-93.3439,0037,-0.10,0.99,1.0000,354.0000
1981-09-09 17:00:00 UTC,2444857.208333,29.7697,-93.3439,0037,1.32,-2.70,3.0000,154.0000
1981-09-09 17:30:00 UTC,2444857.229167,29.7697,-93.3439,0037,1.35,-5.85,6.0000,167.0000
1981-09-09 18:00:00 UTC,2444857.250000,29.7697,-93.3439,0037,0.17,-10.00,10.0000,179.0000
1981-09-09 18:30:00 UTC,2444857.270833,29.7697,-93.3439,0037,0.00,-17.00,17.0000,180.0000
1981-09-09 19:00:00 UTC,2444857.291667,29.7697,-93.3439,0037,1.41,-26.96,27.0000,177.0000
1981-09-09 19:30:00 UTC,2444857.312500,29.7697,-93.3439,0037,3.05,-34.87,35.0000,175.0000
1981-09-09 20:00:00 UTC,2444857.333333,29.7697,-93.3439,0037,3.92,-44.83,45.0000,175.0000
1981-09-09 20:30:00 UTC,2444857.354167,29.7697,-93.3439,0037,4.88,-55.79,56.0000,175.0000
1981-09-09 21:00:00 UTC,2444857.375000,29.7697,-93.3439,0037,5.23,-59.77,60.0000,175.0000
1981-09-09 21:30:00 UTC,2444857.395833,29.7697,-93.3439,0037,5.06,-57.78,58.0000,175.0000
1981-09-09 22:00:00 UTC,2444857.416667,29.7697,-93.3439,0037,4.97,-56.78,57.0000,175.0000
1981-09-09 22:30:00 UTC,2444857.437500,29.7697,-93.3439,0037,4.05,-57.86,58.0000,176.0000
1981-09-09 23:00:00 UTC,2444857.458333,29.7697,-93.3439,0037,3.30,-62.91,63.0000,177.0000
1981-09-09 23:30:00 UTC,2444857.479167,29.7697,-93.3439,0037,5.16,-73.82,74.0000,176.0000
1981-09-10 00:00:00 UTC,2444857.500000,29.7697,-93.3439,0037,10.24,-83.37,84.0000,173.0000
1981-09-10 00:30:00 UTC,2444857.520833,29.7697,-93.3439,0037,12.11,-86.15,87.0000,172.0000
1981-09-10 01:00:00 UTC,2444857.541667,29.7697,-93.3439,0037,11.69,-83.18,84.0000,172.0000
1981-09-10 01:30:00 UTC,2444857.562500,29.7697,-93.3439,0037,15.26,-78.53,80.0000,169.0000